Back to catalog

CZ-4 DEB

AliveSSO
NORAD 27493·DEBRIS·🇨🇳 China

Launched Oct 14, 1999 from Taiyuan Satellite Launch Center

Loading…

Next Passes (next 24 hours)

TLE

FreshSource: Space-Track

Epoch: Sep 12, 2026, 09:57 UTC

1 27493U 99057MN  26255.41496806  .00000503  00000-0  13754-3 0  9994
2 27493  98.5353 313.9136 0072449 274.1325 149.5311 14.50224362363786

Track CZ-4 DEB in real time with AllMySat

Download on the App Store